Wind_Speed
33 32 30 29 27 25 23 21 22 22 21 21 21 20 19 18 18 18 18 18 18 19 18 18 19 21 22 22 23 22 21 20 20 19 18 18 19 20 20 20 21 21 21
35 34 32 31 29 27 24 23 24 24 24 23 23 22 21 21 20 20 19 19 19 19 19 20 21 23 24 24 24 24 24 23 23 22 20 20 20 20 20 20 21 21 21
37 35 32 31 30 28 26 25 25 26 27 26 26 24 24 23 22 21 20 20 20 21 20 21 23 24 24 25 25 25 26 26 26 25 22 22 21 21 21 21 22 22 21
38 36 33 32 31 29 28 28 27 29 30 30 28 27 26 24 23 22 21 22 22 22 23 23 24 25 25 26 27 26 27 28 28 28 27 24 22 22 22 23 23 22 22
38 36 35 33 32 31 31 31 30 32 34 34 31 29 27 24 23 22 22 23 23 24 24 25 26 26 27 27 28 28 28 29 30 30 29 27 23 23 24 23 23 23 22
36 36 36 35 35 34 34 34 34 36 36 36 35 31 27 24 22 21 22 23 24 25 25 25 26 26 26 27 27 27 27 28 29 30 30 28 25 24 24 23 24 24 23
34 34 35 36 37 37 37 38 37 38 39 37 33 29 26 23 21 20 20 22 23 24 25 26 26 26 26 26 26 26 27 28 29 29 30 30 30 27 24 24 24 25 25
32 34 34 36 38 38 39 39 37 38 39 37 30 25 21 20 18 19 20 22 23 24 25 26 26 26 26 25 25 26 26 26 26 27 29 29 29 27 25 24 24 25 26
30 32 33 35 37 38 38 38 38 38 36 31 26 22 19 18 18 19 20 22 24 25 26 26 25 25 25 25 25 25 25 24 24 25 26 27 27 25 26 25 24 24 26
25 28 31 32 34 33 35 35 34 33 29 24 19 17 16 16 17 19 21 23 25 26 26 25 24 24 24 24 24 24 23 23 23 22 23 23 23 25 25 25 24 25 26
20 22 24 25 27 25 24 23 23 22 20 15 13 14 15 17 18 20 23 24 25 26 25 25 25 24 23 24 23 23 23 22 22 22 21 22 21 21 22 24 25 25 26
15 16 17 16 17 15 13 12 14 13 12 11 12 13 16 18 20 22 24 24 24 24 25 25 25 24 23 23 23 22 22 22 22 22 21 21 21 21 21 22 23 24 25
5 6 6 6 6 6 6 7 7 8 9 10 12 15 17 19 21 22 23 23 23 23 24 24 24 23 23 23 22 22 22 22 22 22 22 21 21 21 21 21 22 22 22
5 5 5 5 5 6 6 5 6 8 10 12 14 17 19 20 20 21 22 22 22 22 22 23 23 22 22 22 21 21 22 22 22 22 23 23 22 22 21 22 22 22 22
6 7 7 7 6 6 6 7 8 10 12 14 16 18 19 19 18 19 19 20 21 21 21 22 22 22 22 22 21 22 22 22 22 22 22 23 23 23 23 22 22 22 23
7 6 5 4 3 4 6 8 10 12 14 15 16 17 16 17 17 17 17 18 19 20 21 21 22 22 23 23 23 22 22 22 23 23 23 23 23 23 24 23 23 22 23
6 5 3 1 1 3 5 7 9 11 12 13 14 14 14 14 15 16 17 19 20 20 21 22 22 23 24 24 23 23 23 22 22 23 23 24 24 24 23 23 23 23 23
9 7 6 4 3 3 4 5 7 8 10 12 13 15 15 16 17 18 19 20 21 22 22 23 23 23 23 23 22 22 22 22 22 22 22 23 23 23 23 23 23 23 23
11 9 8 6 5 4 5 6 7 9 11 13 14 15 17 17 18 19 20 21 22 23 23 23 22 22 23 22 22 21 21 21 21 22 22 22 22 22 22 23 23 23 23
11 10 8 7 6 6 7 8 9 11 12 13 15 16 17 18 19 20 21 21 22 22 22 22 21 21 21 21 21 20 20 20 20 20 21 22 22 21 22 22 23 23 23
11 10 9 8 8 9 9 10 11 12 13 15 16 16 17 18 19 19 19 20 20 19 19 19 18 18 18 18 19 19 19 19 20 20 21 21 22 22 22 22 22 22 23
10 10 10 10 11 11 12 12 13 14 15 16 16 17 17 18 18 18 17 17 17 16 16 16 16 16 16 17 17 18 19 19 20 21 21 21 22 22 22 22 22 22 22
12 12 12 12 13 14 14 15 15 16 16 17 17 17 18 17 17 17 16 16 15 14 14 13 14 14 15 15 16 17 18 18 20 20 21 21 22 22 22 22 22 22 22
13 13 13 14 15 16 17 17 17 18 18 18 18 18 17 17 17 17 16 15 14 13 12 11 11 12 12 13 14 15 15 16 17 19 19 20 21 21 21 21 21 21 21
13 14 14 15 16 16 17 17 18 18 17 17 18 18 18 17 18 17 16 15 14 13 11 10 10 10 10 10 10 11 11 13 14 15 17 18 18 19 19 19 19 19 20
14 14 15 16 16 16 16 17 17 17 17 17 18 18 18 18 18 18 17 16 15 13 12 12 11 10 10 9 9 8 7 7 8 9 11 12 13 14 14 15 16 16 17
Wind_Direction
274 275 275 273 274 274 274 269 267 266 266 268 269 269 271 273 275 276 279 281 281 281 278 277 277 277 278 279 280 280 280 281 281 281 278 275 268 261 258 254 251 250 250
270 271 271 270 269 271 271 265 261 261 262 264 265 265 266 268 270 274 276 276 276 274 272 272 274 275 277 278 278 278 277 279 279 277 274 273 267 261 257 254 251 251 252
266 266 264 264 263 264 264 261 259 260 261 260 260 260 261 263 266 269 272 273 273 272 270 271 273 275 277 277 276 276 276 277 277 274 270 268 263 260 258 253 250 250 251
262 260 258 257 256 258 258 256 256 257 258 258 256 255 256 258 262 265 268 269 269 269 270 273 275 276 276 276 276 275 274 273 273 271 270 263 260 260 258 254 250 250 249
259 255 253 252 251 251 251 249 249 253 253 253 253 253 252 255 257 260 266 269 269 270 272 275 277 278 277 276 275 274 272 270 270 268 268 266 259 257 255 251 250 250 249
256 251 248 247 246 247 247 246 246 248 250 249 247 249 248 251 254 260 265 267 269 272 275 279 281 281 280 279 277 274 271 270 268 266 267 266 264 258 255 251 248 248 248
252 248 244 242 242 242 244 245 245 245 246 246 244 245 248 254 258 263 265 268 272 275 279 283 285 285 283 281 279 275 272 270 268 266 266 268 267 260 254 251 249 245 244
249 245 242 241 241 241 243 244 245 245 244 243 244 246 249 254 260 265 268 273 278 282 285 288 288 288 286 283 281 278 276 273 270 267 266 267 268 261 253 249 248 245 243
249 244 242 241 241 241 242 246 245 243 241 240 245 248 252 258 265 271 277 283 286 289 291 291 290 290 288 285 283 280 279 276 272 269 267 267 265 259 250 247 247 247 244
249 245 244 243 242 243 244 245 241 238 237 240 240 249 258 265 273 280 286 289 290 291 292 292 290 290 288 286 284 282 280 276 273 270 267 267 265 257 251 247 246 246 244
250 247 245 245 248 248 246 242 236 232 232 234 239 248 259 270 278 285 289 290 290 291 291 290 289 288 287 286 284 281 279 275 271 270 268 265 264 262 256 250 246 247 244
256 252 251 251 243 244 246 232 220 215 222 234 245 259 270 278 285 288 291 290 289 289 289 288 286 286 285 284 282 280 277 273 270 268 267 266 265 262 261 257 252 249 246
249 250 236 224 221 222 219 200 203 218 233 249 262 272 280 286 290 290 289 288 286 286 287 287 286 285 285 282 280 278 275 272 269 266 264 265 266 261 258 260 259 254 248
112 117 123 139 151 163 176 196 214 233 251 264 275 284 288 290 292 292 289 286 284 283 284 285 286 285 284 282 279 276 274 272 269 266 264 263 262 262 261 260 259 255 253
115 125 132 140 155 171 195 220 241 255 266 276 285 291 291 291 292 293 290 285 284 284 284 284 285 284 283 282 279 276 273 271 269 267 264 263 261 261 260 260 259 257 255
109 118 139 156 178 208 232 248 262 271 277 282 290 296 296 294 293 292 290 289 289 288 287 286 286 286 284 282 279 277 273 271 269 267 265 263 261 260 259 259 259 258 256
81 83 93 120 218 266 275 281 288 289 290 293 296 299 301 298 295 292 291 291 289 288 288 287 288 287 284 281 279 276 273 270 268 266 264 263 262 260 259 258 258 257 257
71 68 66 57 34 352 320 306 306 308 307 306 304 304 302 299 296 295 293 292 291 290 288 287 287 285 283 281 279 275 273 270 268 265 264 262 261 259 258 256 256 255 255
68 63 55 46 33 13 352 337 329 323 318 313 309 307 305 302 299 296 294 293 291 290 288 286 285 283 281 279 276 274 273 270 268 265 264 262 260 259 257 256 255 255 255
60 53 42 31 18 5 352 341 334 328 322 317 313 311 309 306 303 300 298 295 292 290 288 285 283 281 279 278 276 274 272 270 268 266 265 263 261 259 258 257 255 255 256
49 41 31 20 10 1 353 345 337 331 326 322 320 317 316 314 311 308 304 300 296 292 288 285 282 279 278 277 275 273 272 270 268 267 266 263 262 260 259 258 258 256 255
41 36 30 22 14 6 357 350 343 339 336 333 331 329 327 325 322 318 313 308 302 297 293 290 286 281 279 278 276 273 271 269 266 265 265 263 262 261 260 258 258 258 257
38 33 28 22 16 9 2 357 353 351 348 345 344 342 340 337 335 332 328 322 315 309 304 300 294 289 285 283 281 276 272 268 265 264 263 262 262 261 259 257 258 259 259
36 29 24 21 17 11 6 2 0 359 358 358 357 356 355 352 350 346 342 337 332 326 320 314 308 304 300 296 291 284 278 272 268 266 265 262 260 259 257 256 257 259 260
30 27 25 22 18 13 10 8 8 8 10 10 10 8 6 3 1 358 357 355 353 350 347 342 335 330 326 321 315 305 290 280 274 268 265 262 256 256 256 257 258 259 261
29 27 24 22 20 18 17 16 17 19 21 20 19 18 16 14 13 13 12 12 12 12 11 9 4 0 357 353 351 344 327 309 296 284 270 262 256 257 256 256 257 259 263
Height
5859 5859 5860 5860 5860 5860 5860 5859 5859 5859 5859 5859 5858 5858 5858 5859 5859 5859 5859 5860 5860 5859 5859 5858 5858 5858 5857 5856 5856 5856 5855 5855 5854 5854 5854 5854 5854 5854 5855 5856 5857 5857 5858
5851 5852 5853 5853 5853 5854 5854 5854 5854 5854 5853 5853 5853 5853 5853 5853 5853 5853 5854 5854 5855 5854 5854 5854 5854 5853 5852 5851 5850 5850 5850 5850 5849 5849 5849 5849 5849 5849 5851 5852 5852 5853 5854
5841 5843 5844 5846 5846 5847 5847 5848 5848 5848 5847 5847 5847 5846 5847 5847 5847 5847 5848 5849 5849 5849 5849 5849 5849 5848 5847 5846 5845 5845 5844 5844 5843 5843 5843 5843 5843 5844 5845 5847 5848 5848 5849
5831 5833 5835 5837 5839 5840 5840 5841 5841 5841 5841 5840 5839 5839 5840 5841 5841 5842 5842 5843 5843 5844 5844 5844 5843 5842 5842 5841 5840 5839 5839 5838 5837 5837 5837 5837 5838 5838 5839 5841 5842 5843 5844
5821 5823 5825 5828 5830 5831 5832 5833 5834 5834 5834 5833 5832 5831 5832 5834 5835 5836 5837 5837 5837 5837 5837 5837 5837 5836 5835 5835 5834 5834 5833 5832 5831 5831 5830 5831 5831 5832 5833 5835 5837 5839 5840
5810 5813 5816 5818 5820 5822 5823 5824 5825 5825 5826 5826 5824 5823 5825 5827 5829 5830 5831 5831 5831 5831 5831 5830 5830 5829 5829 5828 5828 5827 5826 5826 5825 5825 5825 5825 5825 5826 5828 5829 5831 5833 5835
5800 5803 5805 5808 5810 5812 5813 5815 5815 5816 5816 5816 5815 5817 5819 5821 5823 5824 5825 5825 5825 5825 5824 5824 5823 5822 5822 5821 5821 5820 5820 5819 5819 5819 5819 5819 5819 5820 5822 5823 5825 5827 5829
5791 5793 5796 5798 5800 5802 5804 5805 5806 5807 5807 5807 5808 5810 5812 5814 5816 5817 5818 5818 5819 5818 5817 5817 5817 5816 5815 5814 5814 5813 5813 5813 5813 5813 5812 5812 5813 5813 5815 5817 5819 5821 5823
5783 5785 5787 5789 5791 5793 5795 5795 5796 5798 5799 5800 5802 5804 5806 5808 5810 5811 5812 5812 5813 5812 5811 5811 5810 5809 5809 5808 5807 5807 5806 5806 5806 5806 5806 5806 5806 5807 5809 5811 5813 5815 5817
5776 5778 5780 5782 5784 5785 5787 5787 5789 5792 5793 5795 5797 5800 5801 5803 5805 5806 5806 5807 5807 5806 5806 5805 5804 5803 5803 5802 5801 5800 5800 5800 5800 5800 5800 5800 5801 5801 5803 5804 5807 5809 5811
5771 5772 5774 5776 5777 5777 5778 5781 5783 5786 5789 5792 5794 5796 5798 5799 5800 5801 5802 5802 5801 5801 5800 5799 5798 5798 5797 5796 5795 5795 5794 5794 5794 5795 5795 5795 5795 5796 5797 5798 5800 5802 5804
5767 5768 5770 5771 5773 5774 5776 5778 5781 5784 5787 5790 5792 5794 5795 5797 5797 5797 5797 5796 5796 5795 5794 5794 5793 5792 5791 5790 5789 5789 5789 5789 5789 5789 5789 5790 5790 5791 5792 5793 5794 5796 5798
5765 5766 5767 5770 5772 5773 5776 5778 5781 5784 5786 5789 5791 5792 5793 5793 5793 5793 5792 5791 5790 5790 5789 5788 5787 5786 5785 5784 5783 5783 5783 5783 5783 5784 5784 5785 5785 5786 5787 5788 5789 5790 5792
5766 5767 5768 5770 5772 5774 5776 5779 5781 5783 5785 5787 5788 5789 5789 5789 5789 5788 5787 5786 5785 5784 5783 5782 5781 5779 5778 5778 5777 5777 5776 5777 5777 5777 5778 5779 5780 5781 5782 5783 5784 5785 5786
5767 5769 5770 5772 5773 5775 5777 5779 5781 5783 5784 5785 5786 5786 5785 5785 5784 5783 5782 5781 5780 5779 5777 5776 5775 5773 5772 5771 5770 5770 5770 5770 5771 5771 5772 5773 5774 5775 5776 5777 5778 5779 5781
5769 5770 5771 5773 5774 5776 5778 5779 5780 5781 5782 5782 5783 5782 5781 5780 5779 5778 5777 5776 5775 5773 5771 5770 5768 5767 5766 5765 5764 5764 5764 5764 5764 5765 5765 5766 5768 5769 5770 5771 5772 5774 5775
5771 5772 5773 5774 5775 5777 5778 5779 5779 5779 5780 5780 5779 5779 5777 5776 5775 5774 5772 5771 5769 5767 5766 5764 5762 5761 5759 5758 5758 5757 5757 5757 5758 5758 5759 5760 5761 5762 5763 5764 5766 5767 5768
5774 5774 5775 5775 5776 5777 5777 5778 5778 5778 5777 5777 5776 5775 5774 5772 5770 5768 5766 5765 5763 5761 5760 5758 5756 5754 5753 5752 5751 5751 5751 5751 5751 5751 5752 5753 5754 5755 5757 5758 5759 5760 5762
5776 5777 5777 5777 5778 5778 5778 5777 5777 5776 5775 5774 5773 5771 5769 5767 5765 5763 5761 5759 5757 5755 5753 5751 5750 5748 5746 5745 5745 5745 5744 5744 5745 5745 5746 5747 5748 5749 5750 5752 5753 5754 5756
5779 5779 5779 5779 5779 5778 5777 5776 5775 5774 5773 5771 5769 5767 5764 5762 5759 5757 5755 5752 5750 5748 5746 5744 5743 5742 5740 5739 5739 5738 5738 5738 5738 5739 5739 5740 5741 5742 5743 5745 5746 5748 5749
5781 5781 5780 5780 5779 5778 5776 5775 5773 5772 5770 5767 5765 5762 5759 5757 5754 5751 5749 5746 5743 5741 5740 5738 5736 5735 5734 5734 5733 5732 5732 5732 5732 5733 5733 5734 5735 5736 5737 5738 5740 5741 5743
5783 5782 5781 5779 5778 5777 5775 5773 5771 5769 5766 5764 5761 5758 5755 5752 5749 5746 5743 5740 5738 5736 5734 5732 5731 5729 5729 5728 5727 5726 5726 5726 5726 5726 5727 5727 5728 5729 5731 5732 5733 5735 5736
5785 5783 5781 5779 5778 5776 5774 5772 5769 5766 5763 5760 5757 5754 5751 5748 5745 5742 5739 5736 5733 5731 5729 5727 5726 5724 5723 5722 5721 5720 5719 5719 5719 5719 5720 5721 5722 5723 5724 5725 5727 5728 5730
5786 5784 5782 5780 5778 5775 5773 5770 5767 5764 5761 5758 5755 5752 5749 5746 5743 5739 5736 5733 5730 5727 5725 5723 5721 5720 5718 5717 5715 5714 5713 5713 5712 5713 5713 5714 5715 5716 5718 5719 5721 5722 5724
5788 5786 5783 5781 5778 5775 5773 5770 5767 5764 5761 5759 5756 5752 5749 5746 5742 5739 5735 5731 5728 5725 5723 5721 5719 5717 5715 5713 5711 5709 5708 5707 5707 5706 5707 5707 5709 5710 5712 5714 5715 5717 5718
5789 5787 5785 5782 5780 5777 5774 5771 5769 5766 5763 5760 5757 5754 5751 5747 5743 5739 5736 5732 5728 5725 5723 5720 5718 5715 5713 5711 5709 5706 5704 5703 5702 5702 5702 5702 5704 5705 5707 5709 5710 5712 5713